User: anonymous   Login
Location: Newark
(43.6583°N, 1.6617°E)
Time: 03:24:56
(UTC+00:00)
Language:

Tiros 1 despin weight - Orbit

View from above orbital plane
View from above orbital plane
View from above satellite
View from above satellite

Ground track
Ground track

The orbit data is extracted from the following two-line orbital elements,

1   115U 60002D   19236.15886913 -.00000071  00000-0  18723-4 0  9991
2   115  48.1658 268.4909 0034120  12.8899 347.2878 14.83464403168681
Epoch (UTC): 24 August 2019 03:48:46
Eccentricity: 0.0034120
inclination: 48.1658°
perigee height: 594 km
apogee height: 642 km
right ascension of ascending node: 268.4909°
argument of perigee: 12.8899°
revolutions per day: 14.83464403
mean anomaly at epoch: 347.2878°
orbit number at epoch: 16868

The dashed part of the orbit path shows where the satellite is in the earth's shadow,  

DLR